Tracking 26951 objects as of 3-Feb-2023
HD Live streaming from Space Station
objects crossing your sky now

STARLINK-3082

Track STARLINK-3082 now!
10-day predictions
STARLINK-3082 is classified as:


NORAD ID: 49162
Int'l Code: 2021-082AJ
Perigee: 577.0 km
Apogee: 581.4 km
Inclination: 70.0 °
Period: 96.1 minutes
Semi major axis: 6950 km
RCS: Unknown
Launch date: September 14, 2021
Source: United States (US)
Launch site: AIR FORCE WESTERN TEST RANGE (AFWTR)
Your satellite tracking list
Your tracking list is empty




NASA's NSSDC Master Catalog

Two Line Element Set (TLE):
1 49162U 21082AJ  23033.02577128 -.00000219  00000-0 -10581-4 0  9991
2 49162  69.9985 267.7780 0003120 272.9597  87.1205 14.98329231 77621
Source of the keplerian elements: AFSPC